FDX13 ZYQQ-RJTT

Flight info

Callsign FDX13
Flight time N/A
Altitude 32000
Route 06NDG ONINA B451 KADBO R211 GTC Y303 SASAP Y10
Aircraft B737/M-VGDW/C

Departure

Time 2026-05-06 11:54
Airport Qiqihar Sanjiazi Airport (ZYQQ)

Arrival

Time N/A
Airport Tokyo Haneda International Airport (RJTT)
Time Latitude Longitude Altitude Speed Heading
2026-05-06 11:52 47.24698 123.91281 477 ft 0 kts 67°
2026-05-06 11:53 47.24708 123.91322 476 ft 8 kts 77°
2026-05-06 11:53 47.24662 123.91402 475 ft 16 kts 154°
2026-05-06 11:53 47.24310 123.91620 479 ft 99 kts 157°
2026-05-06 11:53 47.23435 123.92144 477 ft 169 kts 161°
2026-05-06 11:54 47.22226 123.92818 1013 ft 188 kts 158°
2026-05-06 11:54 47.20979 123.93537 2071 ft 197 kts 158°
2026-05-06 11:54 47.19677 123.94322 2507 ft 222 kts 149°
2026-05-06 11:54 47.18393 123.95875 2713 ft 254 kts 129°
2026-05-06 11:55 47.17264 123.98002 3289 ft 270 kts 127°
2026-05-06 11:55 47.16038 124.00139 4105 ft 276 kts 131°
2026-05-06 11:55 47.14689 124.02177 4973 ft 280 kts 134°
2026-05-06 11:55 47.13325 124.04196 5834 ft 282 kts 134°
2026-05-06 11:56 47.11957 124.06297 6674 ft 285 kts 133°
2026-05-06 11:56 47.10587 124.08426 7457 ft 289 kts 134°
2026-05-06 11:56 47.09192 124.10574 8236 ft 292 kts 134°
2026-05-06 11:56 47.08257 124.12003 8757 ft 294 kts 134°
2026-05-06 11:57 47.06832 124.14183 9538 ft 298 kts 134°
2026-05-06 11:57 47.05391 124.16391 10236 ft 302 kts 134°
2026-05-06 11:57 47.03415 124.19416 10829 ft 319 kts 135°
2026-05-06 11:57 47.01835 124.21829 11150 ft 335 kts 135°
2026-05-06 11:58 47.00192 124.24339 11595 ft 347 kts 135°
2026-05-06 11:58 46.99079 124.26039 11969 ft 351 kts 135°
2026-05-06 11:58 46.97369 124.28648 12584 ft 356 kts 136°
2026-05-06 11:58 46.95638 124.31284 13227 ft 361 kts 136°
2026-05-06 11:59 46.93892 124.33941 13853 ft 364 kts 136°
2026-05-06 11:59 46.92121 124.36633 14415 ft 368 kts 136°
2026-05-06 11:59 46.90333 124.39349 14965 ft 372 kts 136°
2026-05-06 11:59 46.88527 124.42088 15504 ft 376 kts 137°
2026-05-06 12:00 46.86702 124.44854 16051 ft 380 kts 137°
2026-05-06 12:00 46.84856 124.47649 16581 ft 384 kts 137°
2026-05-06 12:00 46.82989 124.50473 17108 ft 388 kts 137°
2026-05-06 12:00 46.81107 124.53317 17634 ft 392 kts 137°
2026-05-06 12:01 46.79221 124.56163 18145 ft 395 kts 137°
2026-05-06 12:01 46.77302 124.59056 18577 ft 399 kts 137°
2026-05-06 12:01 46.75363 124.61975 19021 ft 402 kts 138°
2026-05-06 12:01 46.73401 124.64926 19448 ft 406 kts 138°
2026-05-06 12:02 46.71424 124.67898 19870 ft 410 kts 138°
2026-05-06 12:02 46.69424 124.70899 20297 ft 413 kts 138°
2026-05-06 12:02 46.67409 124.73919 20698 ft 417 kts 139°
2026-05-06 12:02 46.65403 124.76923 21118 ft 420 kts 139°
2026-05-06 12:03 46.63329 124.80025 21522 ft 424 kts 139°
2026-05-06 12:03 46.61287 124.83076 21919 ft 427 kts 139°
2026-05-06 12:03 46.59199 124.86192 22307 ft 431 kts 139°
2026-05-06 12:03 46.57091 124.89335 22680 ft 434 kts 139°
2026-05-06 12:04 46.54976 124.92482 23064 ft 438 kts 139°
2026-05-06 12:04 46.52842 124.95656 23440 ft 441 kts 139°
2026-05-06 12:04 46.50684 124.98861 23750 ft 444 kts 139°
2026-05-06 12:04 46.48519 125.02072 24061 ft 447 kts 140°
2026-05-06 12:05 46.46334 125.05309 24381 ft 450 kts 140°
2026-05-06 12:05 46.44138 125.08559 24708 ft 452 kts 141°
2026-05-06 12:05 46.41950 125.11792 25012 ft 455 kts 141°
2026-05-06 12:05 46.39729 125.15070 25346 ft 457 kts 141°
2026-05-06 12:06 46.37491 125.18371 25731 ft 458 kts 142°
2026-05-06 12:06 46.35254 125.21668 26200 ft 457 kts 142°
2026-05-06 12:06 46.33026 125.24945 26659 ft 456 kts 143°
2026-05-06 12:06 46.30832 125.28166 27111 ft 455 kts 144°
2026-05-06 12:07 46.28606 125.31431 27539 ft 454 kts 145°
2026-05-06 12:07 46.26381 125.34693 27977 ft 453 kts 146°
2026-05-06 12:07 46.24158 125.37934 28416 ft 453 kts 147°
2026-05-06 12:07 46.21930 125.41168 28859 ft 453 kts 148°
2026-05-06 12:08 46.19738 125.44351 29307 ft 453 kts 148°
2026-05-06 12:08 46.17509 125.47592 29771 ft 453 kts 149°
2026-05-06 12:08 46.15291 125.50811 30181 ft 453 kts 149°
2026-05-06 12:08 46.13069 125.54028 30554 ft 452 kts 149°
2026-05-06 12:09 46.10846 125.57241 30930 ft 452 kts 149°
2026-05-06 12:09 46.08626 125.60451 31225 ft 452 kts 150°
2026-05-06 12:09 46.06395 125.63671 31584 ft 452 kts 150°
2026-05-06 12:09 46.04183 125.66863 31875 ft 449 kts 150°
2026-05-06 12:10 45.99825 125.73136 31872 ft 442 kts 151°
2026-05-06 12:10 45.95477 125.79367 31865 ft 440 kts 151°
2026-05-06 12:11 45.91139 125.85585 31873 ft 440 kts 151°
2026-05-06 12:11 45.86798 125.91783 31866 ft 440 kts 151°
2026-05-06 12:12 45.82480 125.97939 31868 ft 440 kts 151°
2026-05-06 12:12 45.78131 126.04124 31872 ft 439 kts 151°
2026-05-06 12:13 45.73772 126.10305 31876 ft 442 kts 151°
2026-05-06 12:13 45.69427 126.16460 31908 ft 442 kts 151°
2026-05-06 12:14 45.65050 126.22639 31910 ft 441 kts 151°
2026-05-06 12:14 45.60750 126.28991 31912 ft 448 kts 147°
2026-05-06 12:15 45.56546 126.35543 31909 ft 447 kts 148°
2026-05-06 12:15 45.52367 126.42030 31902 ft 447 kts 147°
2026-05-06 12:16 45.48157 126.48563 31902 ft 446 kts 148°
2026-05-06 12:16 45.43948 126.55068 31897 ft 446 kts 147°
2026-05-06 12:17 45.39752 126.61549 31888 ft 444 kts 147°
2026-05-06 12:17 45.35565 126.67987 31896 ft 443 kts 147°
2026-05-06 12:18 45.31398 126.74390 31898 ft 443 kts 147°
2026-05-06 12:18 45.27206 126.80812 31901 ft 443 kts 147°
2026-05-06 12:19 45.23015 126.87219 31910 ft 442 kts 147°
2026-05-06 12:19 45.18821 126.93614 31911 ft 442 kts 147°
2026-05-06 12:20 45.14651 126.99959 31910 ft 442 kts 148°
2026-05-06 12:20 45.10457 127.06326 31910 ft 442 kts 147°
2026-05-06 12:21 45.06256 127.12688 31914 ft 442 kts 147°
2026-05-06 12:21 45.02049 127.19050 31914 ft 442 kts 147°
2026-05-06 12:22 44.97917 127.25532 31930 ft 444 kts 146°
2026-05-06 12:22 44.93786 127.31933 31932 ft 445 kts 147°
2026-05-06 12:23 44.89620 127.38387 31936 ft 445 kts 146°
2026-05-06 12:23 44.85456 127.44831 31941 ft 444 kts 146°
2026-05-06 12:24 44.81280 127.51262 31940 ft 444 kts 146°
2026-05-06 12:24 44.77100 127.57694 31946 ft 447 kts 146°
2026-05-06 12:25 44.72907 127.64136 31953 ft 446 kts 146°
2026-05-06 12:25 44.68707 127.70565 31951 ft 446 kts 146°
2026-05-06 12:26 44.64528 127.76951 31927 ft 446 kts 145°
2026-05-06 12:26 44.60313 127.83375 31972 ft 447 kts 145°
2026-05-06 12:27 44.56097 127.89790 31968 ft 447 kts 146°
2026-05-06 12:27 44.51877 127.96193 31970 ft 447 kts 146°
2026-05-06 12:28 44.47655 128.02583 31976 ft 449 kts 145°
2026-05-06 12:28 44.43390 128.09028 31976 ft 449 kts 145°
2026-05-06 12:29 44.39141 128.15432 31970 ft 449 kts 145°
2026-05-06 12:29 44.34917 128.21780 31978 ft 448 kts 145°
2026-05-06 12:30 44.30658 128.28168 31972 ft 451 kts 145°
2026-05-06 12:30 44.26378 128.34577 31972 ft 451 kts 145°
2026-05-06 12:31 44.22089 128.40980 31970 ft 451 kts 145°
2026-05-06 12:31 44.17803 128.47366 31946 ft 450 kts 144°
2026-05-06 12:32 44.13536 128.53707 31969 ft 452 kts 144°
2026-05-06 12:32 44.09239 128.60120 31945 ft 453 kts 144°
2026-05-06 12:33 44.04956 128.66541 31966 ft 452 kts 144°
2026-05-06 12:33 44.00658 128.72935 31963 ft 453 kts 143°
2026-05-06 12:34 43.96384 128.79302 31963 ft 453 kts 143°
2026-05-06 12:34 43.92083 128.85680 31962 ft 453 kts 144°
2026-05-06 12:35 43.87773 128.92065 31915 ft 453 kts 144°
2026-05-06 12:35 43.83450 128.98449 31966 ft 454 kts 143°
2026-05-06 12:36 43.79135 129.04814 31962 ft 453 kts 143°
2026-05-06 12:36 43.74844 129.11122 31962 ft 453 kts 143°
2026-05-06 12:37 43.70545 129.17526 31961 ft 455 kts 142°
2026-05-06 12:37 43.66263 129.23952 31958 ft 453 kts 143°
2026-05-06 12:38 43.61981 129.30310 31959 ft 454 kts 143°
2026-05-06 12:38 43.57689 129.36707 31941 ft 453 kts 143°
2026-05-06 12:39 43.53377 129.43091 31956 ft 454 kts 143°
2026-05-06 12:39 43.49096 129.49436 31943 ft 454 kts 143°
2026-05-06 12:40 43.44786 129.55797 31942 ft 454 kts 143°
2026-05-06 12:40 43.40481 129.62142 31943 ft 452 kts 142°
2026-05-06 12:41 43.36188 129.68451 31937 ft 452 kts 142°
2026-05-06 12:41 43.32138 129.75056 31943 ft 465 kts 129°
2026-05-06 12:42 43.30614 129.79024 31943 ft 474 kts 118°
2026-05-06 12:42 43.29556 129.83344 31938 ft 481 kts 107°
2026-05-06 12:42 43.28799 129.92484 31932 ft 483 kts 94°
2026-05-06 12:43 43.28484 130.01683 31934 ft 483 kts 95°
2026-05-06 12:43 43.28102 130.10887 31928 ft 484 kts 94°
2026-05-06 12:44 43.27754 130.20110 31917 ft 483 kts 95°
2026-05-06 12:44 43.27372 130.29305 31909 ft 482 kts 94°
2026-05-06 12:45 43.27000 130.38496 31908 ft 482 kts 94°
2026-05-06 12:46 43.26418 130.52225 31916 ft 482 kts 94°
2026-05-06 12:46 43.26090 130.59863 31911 ft 482 kts 95°
2026-05-06 12:47 43.25686 130.69044 31913 ft 482 kts 94°
2026-05-06 12:47 43.25278 130.78207 31896 ft 480 kts 94°
2026-05-06 12:48 43.24861 130.87359 31893 ft 481 kts 94°
2026-05-06 12:48 43.24438 130.96515 31883 ft 480 kts 94°
2026-05-06 12:49 43.24008 131.05655 31886 ft 479 kts 94°
2026-05-06 12:49 43.23573 131.14734 31878 ft 479 kts 94°
2026-05-06 12:50 43.23031 131.23851 31899 ft 479 kts 96°
2026-05-06 12:50 43.22405 131.32910 31887 ft 479 kts 96°
2026-05-06 12:51 43.21748 131.42018 31877 ft 479 kts 96°
2026-05-06 12:51 43.21239 131.51094 31881 ft 479 kts 94°
2026-05-06 12:52 43.20763 131.60205 31850 ft 479 kts 94°
2026-05-06 12:52 43.20304 131.69275 31865 ft 476 kts 94°
2026-05-06 12:53 43.19829 131.78327 31860 ft 475 kts 94°
2026-05-06 12:53 43.19350 131.87374 31866 ft 475 kts 94°
2026-05-06 12:54 43.18825 131.96357 31865 ft 475 kts 96°
2026-05-06 12:54 43.18218 132.05394 31878 ft 474 kts 95°
2026-05-06 12:55 43.17657 132.14400 31866 ft 474 kts 95°
2026-05-06 12:55 43.17056 132.23403 31843 ft 474 kts 95°
2026-05-06 12:56 43.16468 132.32400 31836 ft 474 kts 95°
2026-05-06 12:56 43.15867 132.41329 31844 ft 474 kts 95°
2026-05-06 12:57 43.15256 132.50315 31827 ft 474 kts 96°
2026-05-06 12:57 43.14611 132.59282 31830 ft 473 kts 96°
2026-05-06 12:58 43.13974 132.68245 31827 ft 473 kts 96°
2026-05-06 12:58 43.13322 132.77212 31841 ft 473 kts 96°
2026-05-06 12:59 43.12666 132.86182 31825 ft 474 kts 96°
2026-05-06 12:59 43.12006 132.95101 31832 ft 474 kts 96°
2026-05-06 13:00 43.11335 133.04065 31828 ft 473 kts 96°
2026-05-06 13:00 43.10658 133.13024 31825 ft 472 kts 96°
2026-05-06 13:01 43.09976 133.21946 31827 ft 470 kts 96°
2026-05-06 13:01 43.09293 133.30803 31820 ft 470 kts 96°
2026-05-06 13:02 43.08601 133.39673 31818 ft 468 kts 96°
2026-05-06 13:02 43.07904 133.48523 31827 ft 468 kts 96°
2026-05-06 13:03 43.07199 133.57377 31825 ft 468 kts 96°
2026-05-06 13:03 43.06489 133.66222 31809 ft 468 kts 96°
2026-05-06 13:04 43.05774 133.75025 31801 ft 469 kts 96°
2026-05-06 13:04 43.05051 133.83858 31811 ft 466 kts 97°
2026-05-06 13:05 43.04322 133.92666 31811 ft 465 kts 96°
2026-05-06 13:05 43.03588 134.01450 31815 ft 465 kts 96°
2026-05-06 13:06 43.02848 134.10238 31819 ft 465 kts 97°
2026-05-06 13:06 43.02101 134.19020 31811 ft 464 kts 96°
2026-05-06 13:07 43.01355 134.27711 31823 ft 463 kts 97°
2026-05-06 13:07 43.00597 134.36460 31841 ft 463 kts 97°
2026-05-06 13:08 42.99834 134.45190 31835 ft 463 kts 97°
2026-05-06 13:08 42.99027 134.53912 31844 ft 462 kts 102°
2026-05-06 13:08 42.98192 134.58142 31848 ft 460 kts 114°
2026-05-06 13:09 42.96879 134.62087 31837 ft 454 kts 124°
2026-05-06 13:09 42.93161 134.69025 31845 ft 453 kts 135°
2026-05-06 13:10 42.89213 134.75676 31854 ft 452 kts 135°
2026-05-06 13:10 42.85285 134.82288 31854 ft 450 kts 135°
2026-05-06 13:11 42.81326 134.88922 31854 ft 452 kts 135°
2026-05-06 13:11 42.77357 134.95572 31865 ft 452 kts 135°
2026-05-06 13:12 42.73385 135.02202 31857 ft 451 kts 135°
2026-05-06 13:12 42.69444 135.08772 31844 ft 451 kts 134°
2026-05-06 13:13 42.65461 135.15393 31856 ft 452 kts 134°
2026-05-06 13:13 42.61501 135.22031 31855 ft 452 kts 134°
2026-05-06 13:14 42.57525 135.28661 31838 ft 452 kts 134°
2026-05-06 13:14 42.53557 135.35268 31857 ft 452 kts 134°
2026-05-06 13:15 42.49614 135.41820 31859 ft 451 kts 134°
2026-05-06 13:15 42.45631 135.48406 31868 ft 451 kts 134°
2026-05-06 13:16 42.41645 135.54953 31872 ft 449 kts 134°
2026-05-06 13:16 42.37675 135.61476 31867 ft 449 kts 134°